Location: Cella
(44.7333°N, 10.5667°E)
Time: 07:19:09
(UTC+00:00)

COSMO-SKYMED 1 - Pass Details

Date: 03 March 2021
Orbit: 621 x 623 km, 97.9° (Epoch: 19 April)

Event Time Altitude Azimuth Distance (km) Brightness Sun altitude
Rises 17:43:59 0° 9° (N) 2,916 5.9 -7.1°
Reaches altitude 10° 17:46:12 10° 6° (N) 2,004 5.1 -7.5°
Maximum altitude 17:50:30 62° 287° (WNW) 706 3.2 -8.3°
Drops below altitude 10° 17:54:46 10° 207° (SSW) 1,988 5.5 -9.1°
Sets 17:56:58 0° 204° (SSW) 2,889 6.3 -9.5°
